Location: Holiday Acres Laynes 2 Mobile Home Park
(26.7249°N, 81.8671°W)
Time: 06:37:25
(UTC+00:00)

COSMO-SKYMED 1 - Pass Details

Date: 25 November 2020
Orbit: 621 x 623 km, 97.9° (Epoch: 21 January)

Event Time Altitude Azimuth Distance (km) Brightness Sun altitude
Rises 23:40:40 0° 5° (N) 2,904 5.8 -14.8°
Reaches altitude 10° 23:42:54 10° 360° (N) 1,994 5.0 -15.3°
Maximum altitude 23:47:07 52° 284° (WNW) 778 3.4 -16.2°
Drops below altitude 10° 23:51:18 10° 208° (SSW) 1,984 5.8 -17.1°
Sets 23:53:31 0° 204° (SSW) 2,886 6.6 -17.5°
